Le nostre stazioni meteo in Italia

Pubblicità
Il mio iltempo24.it
Casale Monferrato, Italia (16068): Temperatura & dewpoint: 14.10.2017 09:00:00 - 20.10.2017 09:00:00 (CEST)Casale Monferrato, Italia (16068): velocità del vento: 14.10.2017 09:00:00 - 20.10.2017 09:00:00 (CEST)Casale Monferrato, Italia (16068): direzione del vento: 14.10.2017 09:00:00 - 20.10.2017 09:00:00 (CEST)Casale Monferrato, Italia (16068): reduced air pressure: 14.10.2017 09:00:00 - 20.10.2017 09:00:00 (CEST)Casale Monferrato, Italia (16068): precipitazioni: 14.10.2017 09:00:00 - 20.10.2017 09:00:00 (CEST)
Data & Tempo tt [°C] td [°C] ff [km/h] ff [kn] dd ppp [hPa] rr [mm]
20.10.2017 09:00:00 - - - - - - -
20.10.2017 08:00:00 - - - - - - -
20.10.2017 07:00:00 11,0 10,1 2 1 SSO 1020,3 -
20.10.2017 06:00:00 11,1 10,2 2 1 SSO 1020,3 -
20.10.2017 05:00:00 11,2 10,3 0 0 N 1020,3 -
20.10.2017 04:00:00 11,0 10,1 2 1 NE 1020,3 -
20.10.2017 03:00:00 10,8 9,7 5 3 NNE 1020,1 -
20.10.2017 02:00:00 10,9 9,8 4 2 NNE 1020,0 -
20.10.2017 01:00:00 11,0 9,9 4 2 ENE 1019,7 -
20.10.2017 00:00:00 9,6 8,0 0 0 N 1019,8 -
19.10.2017 23:00:00 10,8 9,2 2 1 O 1019,5 -
19.10.2017 22:00:00 11,8 9,3 0 0 N 1018,9 -
19.10.2017 21:00:00 13,9 12,3 4 2 E 1018,4 -
19.10.2017 20:00:00 14,7 11,4 0 0 N 1018,2 0,0
19.10.2017 19:00:00 16,4 10,9 5 3 ENE 1017,4 -
19.10.2017 18:00:00 19,0 12,0 5 3 E 1017,0 -
19.10.2017 17:00:00 20,0 12,7 5 3 E 1016,8 -
19.10.2017 16:00:00 20,6 13,5 5 3 SSE 1017,0 -
19.10.2017 15:00:00 20,2 13,8 4 2 S 1017,5 -
19.10.2017 14:00:00 19,3 14,5 4 2 S 1018,3 0,0
19.10.2017 13:00:00 16,7 12,8 4 2 E 1019,1 -
19.10.2017 12:00:00 15,8 13,0 4 2 ESE 1019,5 -
19.10.2017 11:00:00 13,6 12,0 4 2 N 1019,5 -
19.10.2017 10:00:00 12,1 10,8 2 1 N 1019,8 -
19.10.2017 09:00:00 10,2 8,8 0 0 N 1019,3 -
19.10.2017 08:00:00 10,4 9,1 4 2 O 1019,0 0,0
19.10.2017 07:00:00 8,6 7,2 2 1 O 1018,6 -
19.10.2017 06:00:00 9,5 8,2 2 1 O 1018,8 -
19.10.2017 05:00:00 9,4 7,8 0 0 N 1018,6 -
19.10.2017 04:00:00 9,7 8,1 2 1 SO 1019,1 -
19.10.2017 03:00:00 10,8 9,4 2 1 O 1019,1 -
19.10.2017 02:00:00 10,8 9,2 0 0 N 1018,9 0,0
19.10.2017 01:00:00 11,1 9,3 2 1 ONO 1019,3 -
19.10.2017 00:00:00 11,5 9,0 2 1 NNO 1019,3 -
18.10.2017 23:00:00 12,2 9,2 0 0 N 1019,2 -
18.10.2017 22:00:00 12,9 9,5 2 1 OSO 1018,6 -
18.10.2017 21:00:00 14,4 10,2 2 1 O 1018,4 -
18.10.2017 20:00:00 16,2 10,2 2 1 O 1017,9 0,0
18.10.2017 19:00:00 17,7 10,3 2 1 NNE 1017,3 -
18.10.2017 18:00:00 20,9 11,7 2 1 NNO 1016,9 -
18.10.2017 17:00:00 22,3 12,8 2 1 SO 1017,0 -
18.10.2017 16:00:00 21,8 13,1 2 1 SSE 1017,1 -
18.10.2017 15:00:00 21,0 13,1 2 1 N 1017,9 -
18.10.2017 14:00:00 20,4 13,3 2 1 NO 1018,9 0,0
18.10.2017 13:00:00 19,2 13,3 4 2 S 1019,8 -
18.10.2017 12:00:00 16,5 13,1 4 2 NNE 1020,5 -
18.10.2017 11:00:00 14,2 12,9 2 1 O 1020,7 -
18.10.2017 10:00:00 10,4 9,3 0 0 N 1021,3 -
18.10.2017 09:00:00 8,5 7,3 0 0 N 1021,2 -
18.10.2017 08:00:00 7,7 6,3 0 0 N 1021,0 0,0
18.10.2017 07:00:00 8,5 7,1 2 1 O 1021,1 -
18.10.2017 06:00:00 7,8 6,2 2 1 SO 1021,5 -
18.10.2017 05:00:00 9,6 8,2 2 1 O 1021,6 -
18.10.2017 04:00:00 10,2 8,8 2 1 ONO 1021,8 -
18.10.2017 03:00:00 10,3 8,7 0 0 N 1022,1 -
18.10.2017 02:00:00 11,1 9,5 2 1 ONO 1022,5 0,0
18.10.2017 01:00:00 11,2 9,4 0 0 N 1022,6 -
18.10.2017 00:00:00 12,2 9,9 2 1 ONO 1022,8 -
17.10.2017 23:00:00 12,8 9,8 2 1 O 1022,8 -
17.10.2017 22:00:00 13,6 10,4 4 2 O 1022,7 -
17.10.2017 21:00:00 14,7 10,3 4 2 O 1022,6 -
17.10.2017 20:00:00 17,1 10,6 0 0 N 1022,6 -
17.10.2017 19:00:00 19,5 11,2 4 2 E 1022,2 -
17.10.2017 18:00:00 21,7 13,0 5 3 ESE 1022,2 -
17.10.2017 17:00:00 23,2 13,0 2 1 NNE 1022,4 -
17.10.2017 16:00:00 23,3 12,8 2 1 OSO 1022,7 -
17.10.2017 15:00:00 22,7 13,4 4 2 S 1023,5 -
17.10.2017 14:00:00 21,2 13,0 4 2 SO 1024,7 -
17.10.2017 13:00:00 20,7 12,8 4 2 SSE 1025,6 -
17.10.2017 12:00:00 18,5 12,7 4 2 NNE 1026,2 -
17.10.2017 11:00:00 16,2 14,1 0 0 N 1026,8 -
17.10.2017 10:00:00 12,3 11,2 0 0 N 1027,2 -
17.10.2017 09:00:00 8,6 7,4 0 0 N 1027,2 -
17.10.2017 08:00:00 7,0 5,5 0 0 N 1026,8 0,0
17.10.2017 07:00:00 7,9 6,5 0 0 N 1026,6 -
17.10.2017 06:00:00 8,6 7,2 2 1 O 1026,6 -
17.10.2017 05:00:00 8,9 7,3 0 0 N 1026,8 -
17.10.2017 04:00:00 9,0 6,6 0 0 N 1026,9 -
17.10.2017 03:00:00 10,5 8,6 0 0 N 1027,1 -
17.10.2017 02:00:00 11,7 9,4 2 1 O 1027,1 0,0
17.10.2017 01:00:00 12,3 10,0 4 2 ONO 1027,2 -
17.10.2017 00:00:00 12,8 9,2 0 0 N 1027,3 -
16.10.2017 23:00:00 13,7 9,5 2 1 O 1027,2 -
16.10.2017 22:00:00 14,7 9,7 4 2 O 1026,8 -
16.10.2017 21:00:00 15,9 10,4 4 2 O 1026,6 -
16.10.2017 20:00:00 17,6 9,4 5 3 O 1026,2 0,0
16.10.2017 19:00:00 21,3 11,3 2 1 NNO - -
16.10.2017 18:00:00 23,7 11,4 5 3 E - -
16.10.2017 17:00:00 25,4 11,9 4 2 NE - -
16.10.2017 16:00:00 26,0 13,4 4 2 S 1025,9 -
16.10.2017 15:00:00 25,0 13,5 4 2 SSO 1026,4 -
16.10.2017 14:00:00 23,7 14,9 4 2 ESE 1027,2 0,0
16.10.2017 13:00:00 21,1 14,6 5 3 E 1028,0 -
16.10.2017 12:00:00 19,8 14,7 4 2 N 1028,5 -
16.10.2017 11:00:00 16,7 15,0 2 1 SSO 1029,0 -
16.10.2017 10:00:00 12,1 11,0 2 1 SO 1029,3 -
16.10.2017 09:00:00 9,6 8,3 0 0 N 1029,1 -
16.10.2017 08:00:00 7,6 6,0 0 0 N 1028,7 0,0
16.10.2017 07:00:00 8,7 7,3 0 0 N 1028,5 -
16.10.2017 06:00:00 8,6 7,2 0 0 N 1028,5 -
16.10.2017 05:00:00 8,9 7,3 0 0 N 1028,4 -
16.10.2017 04:00:00 10,2 8,8 2 1 O 1028,2 -
16.10.2017 03:00:00 10,6 9,0 2 1 O 1028,6 -
16.10.2017 02:00:00 11,0 9,4 2 1 O 1028,5 0,0
16.10.2017 01:00:00 12,3 10,7 2 1 OSO 1028,3 -
16.10.2017 00:00:00 12,6 10,1 0 0 N 1028,2 -
15.10.2017 23:00:00 14,3 10,9 4 2 O 1027,8 -
15.10.2017 22:00:00 15,1 11,6 4 2 O 1027,6 -
15.10.2017 21:00:00 16,1 11,6 4 2 O 1027,3 -
15.10.2017 20:00:00 17,7 11,2 4 2 O 1027,0 0,0
15.10.2017 19:00:00 21,7 13,0 2 1 NNO - -
15.10.2017 18:00:00 24,8 13,3 4 2 SE - -
15.10.2017 17:00:00 25,6 14,3 4 2 E - -
15.10.2017 16:00:00 25,6 14,9 5 3 ESE 1026,6 -
15.10.2017 15:00:00 24,9 15,4 5 3 SSE 1027,1 -
15.10.2017 14:00:00 23,8 16,3 5 3 S 1028,1 0,0
15.10.2017 13:00:00 21,7 15,9 4 2 SSE 1028,9 -
15.10.2017 12:00:00 20,1 15,9 2 1 SO 1029,6 -
15.10.2017 11:00:00 17,0 15,3 2 1 ONO 1030,1 -
15.10.2017 10:00:00 13,5 12,4 0 0 N 1030,1 -
15.10.2017 09:00:00 9,7 8,4 0 0 N 1030,1 -
15.10.2017 08:00:00 8,8 7,4 0 0 N 1029,6 0,0
15.10.2017 07:00:00 9,4 8,0 2 1 O 1029,5 -
15.10.2017 06:00:00 8,9 7,3 0 0 N 1029,3 -
15.10.2017 05:00:00 10,4 8,8 2 1 O 1029,1 -
15.10.2017 04:00:00 11,6 10,0 0 0 N 1029,1 -
15.10.2017 03:00:00 12,7 11,1 2 1 O 1029,3 -
15.10.2017 02:00:00 13,1 11,5 2 1 ONO 1029,1 0,0
15.10.2017 01:00:00 13,4 11,4 2 1 ONO 1029,1 -
15.10.2017 00:00:00 14,0 11,1 2 1 O 1029,0 -
14.10.2017 23:00:00 14,7 11,6 2 1 O 1028,6 -
14.10.2017 22:00:00 15,3 11,8 4 2 OSO 1028,2 -
14.10.2017 21:00:00 16,2 11,3 4 2 O 1027,9 -
14.10.2017 20:00:00 17,8 10,8 2 1 O 1027,3 0,0
14.10.2017 19:00:00 20,8 11,9 4 2 ENE - -
14.10.2017 18:00:00 23,4 13,5 5 3 E - -
14.10.2017 17:00:00 24,5 14,2 4 2 ESE - -
14.10.2017 16:00:00 24,5 14,5 5 3 E 1026,2 -
14.10.2017 15:00:00 24,2 15,3 5 3 SSO 1026,6 -
14.10.2017 14:00:00 23,4 16,1 2 1 ENE 1027,3 0,0
14.10.2017 13:00:00 21,0 15,7 4 2 N 1028,2 -
14.10.2017 12:00:00 18,6 15,0 2 1 N 1028,7 -
14.10.2017 11:00:00 16,4 14,7 4 2 NO 1028,9 -
14.10.2017 10:00:00 14,0 13,0 0 0 N 1028,8 -
14.10.2017 09:00:00 9,2 8,0 0 0 N 1028,7 -

tt = Temperatura
td = dewpoint
ff = velocità del vento
dd = direzione del vento
ppp = reduced air pressure
rr = precipitazioni

Stazioni seguenti

WeatherPro
AMSI
MeteoEarth